Regional Weather Roundup
Issued by NWS

Home | Current Version | Previous Version | Text Only | Print | Product List | Glossary Off
Versions: 1 2 3 4 5 6 7 8 9 10 11 12 13 14 15 16 17 18 19 20 21 22 23 24 25 26 27 28 29 30 31 32 33 34 35 36 37 38 39 40 41 42 43 44 45 46 47 48 49 50

000
ASUS43 KMKX 202311
RWRWI

WISCONSIN REGIONAL WEATHER ROUNDUP
NATIONAL WEATHER SERVICE MILWAUKEE/SULLIVAN WI
600 PM CDT SAT SEP 20 2014

NOTE: "FAIR" INDICATES FEW OR NO CLOUDS BELOW 12,000 FEET WITH NO
SIGNIFICANT WEATHER AND/OR OBSTRUCTIONS TO VISIBILITY.

WIZ001-002-006>008-014>016-023>028-210000-
NORTHWEST WISCONSIN

CITY           SKY/WX    TMP DP  RH WIND       PRES   REMARKS
SUPERIOR ARPT  MOSUNNY   65  53  66 W5        29.69F
ASHLAND        MOSUNNY   65  53  65 CALM      29.70F
HAYWARD        MOSUNNY   66  53  63 SW6       29.72F
SIREN          CLOUDY    66  55  67 CALM      29.73S
RICE LAKE      MOSUNNY   68  54  60 W6        29.75S
LADYSMITH      SUNNY     65  54  65 W6        29.74S
EAU CLAIRE     SUNNY     70  55  59 W5        29.72F
MENOMONIE      PTCLDY    71  55  55 W6        29.73F
NEW RICHMOND   LGT RAIN  68  56  66 W3        29.74S
OSCEOLA        RAIN      68  58  70 SW9       29.76S
$$

WIZ003>005-009-010-017-018-210000-
NORTH CENTRAL WISCONSIN

CITY           SKY/WX    TMP DP  RH WIND       PRES   REMARKS
WOODRUFF       CLEAR     67  52  58 NW3       29.71S
RHINELANDER    CLEAR     68  53  58 W9        29.71S
EAGLE RIVER    MOCLDY    66  53  63 N5        29.70S
LAND O LAKES   PTCLDY    64  54  71 N5        29.72S
PHILLIPS       CLOUDY    66  51  59 W3        29.72R
TOMAHAWK       PTCLDY    67  54  62 CALM      29.70F
MEDFORD        MOSUNNY   67  54  64 W9        29.73R
MERRILL        CLEAR     70  55  59 W9        29.70F
$$

WIZ029-030-035-036-043>047-210000-
CENTRAL WISCONSIN

CITY           SKY/WX    TMP DP  RH WIND       PRES   REMARKS
WAUSAU         PTCLDY    70  55  59 W9        29.70R
MOSINEE        PTCLDY    70  57  64 W10G17    29.72F
MARSHFIELD     SUNNY     71  56  58 W10       29.72F
STEVENS POINT  PTCLDY    70  55  59 W7        29.72S
WAUPACA        CLEAR     75  57  53 W9        29.71S
WAUTOMA        CLEAR     75  59  57 W10       29.72S
WISC RAPIDS    CLEAR     72  56  57 W9        29.74S
CAMP DOUGLAS   SUNNY     73  58  59 W14       29.74S
$$

WIZ011>013-019>022-031-037>040-048>050-210000-
NORTHEAST WISCONSIN

CITY           SKY/WX    TMP DP  RH WIND       PRES   REMARKS
ANTIGO         MOCLDY    70  55  58 W13       29.71S
STURGEON BAY   CLEAR     72  63  73 SW14      29.67R
GREEN BAY      CLEAR     73  63  70 SW7       29.68S
MANITOWOC      CLEAR     72  64  76 W9        29.69S
APPLETON       MOCLDY    72  61  68 SW8       29.70F
CLINTONVILLE   CLEAR     73  55  53 W10       29.68S
OSHKOSH        CLEAR     72  63  73 VRB7      29.70F
$$

WIZ032>034-041-042-053>061-210000-
SOUTHWEST WISCONSIN

CITY           SKY/WX    TMP DP  RH WIND       PRES   REMARKS
LA CROSSE      SUNNY     77  58  51 W3        29.74S
SPARTA         SUNNY     74  55  52 W5        29.75S
VIROQUA        FAIR      73  55  53 W7        29.78R
BOSCOBEL       SUNNY     78  58  49 W7        29.75S
PRAIRIE DU CHI SUNNY     78  53  41 W9        29.76S
PLATTEVILLE    FAIR      76  61  58 W12G17    29.78F
$$

WIZ056-057-062-063-064-067-068-210000-
SOUTH CENTRAL WISCONSIN

CITY           SKY/WX    TMP DP  RH WIND       PRES   REMARKS
BARABOO/DELLS  MOSUNNY   74  59  58 W5        29.75R
LONE ROCK      SUNNY     80  60  50 W13       29.75R HX  81
WATERTOWN      CLEAR     74  61  62 W8        29.74S
MADISON        MOCLDY    75  61  61 VRB7      29.75R
MIDDLETON      FAIR      74  61  63 W8        29.76R
MONROE         SUNNY     75  63  64 SW16      29.78S
JANESVILLE     PTCLDY    75  61  60 W13       29.76S
$$

WIZ051-052-058>065-066-070>072-210000-
SOUTHEAST WISCONSIN

CITY           SKY/WX    TMP DP  RH WIND       PRES   REMARKS
MILWAUKEE      PTCLDY    74  62  66 SW12      29.74R
WAUKESHA       MOCLDY    72  63  73 SW8       29.76R
MILWAUKEE/TIMM MOCLDY    73  61  64 SW9       29.75S
RACINE         CLEAR     72  65  78 SW12G21   29.77R
BURLINGTON     PTCLDY    71  62  73 SW8       29.77R
KENOSHA        CLEAR     71  66  84 SW8       29.77R
FOND DU LAC    CLEAR     72  62  71 W7        29.72F
SHEBOYGAN      CLEAR     72  61  68 W10       29.71F
WEST BEND      PTCLDY    72  59  64 W7        29.73S
JUNEAU         CLEAR     71  62  72 SW10      29.75S
$$

LSZ147-162-210000-
LAKE SUPERIOR

STATION/POSITION TIME  TEMP    WIND        PRES    WAVE
                       AIR SEA DIR/SP/G            HT/PER
                 (UTC) (F)     (DEG/KT/KT) (MB)    (FT/S)
W MID LAKE BUOY  2250   52 47  250/  8/ 10 1005.4R   1/ 4
DEVILS ISLAND    2300   61     330/  7/  7 1005.7F
PORT WING        2200   63      30/  7/  9 1005.4F
SAXON HARBOR     2200   63     310/  4/  7 1006.4S
$$

LMZ867-665-643>646-210000-
LAKE MICHIGAN

STATION/POSITION TIME  TEMP    WIND        PRES    WAVE
                       AIR SEA DIR/SP/G            HT/PER
                 (UTC) (F)     (DEG/KT/KT) (MB)    (FT/S)
N MID LAKE BUOY  2250   61 58  250/ 12/ 14 1003.9R   4/ 6
NORTHPORT PIER   2200   71     260/  5/ 11 1004.1R
SISTER BAY       2242          280/  9/ 10   N/A
KEWAUNEE LAKESHO 2200   73     250/  9/ 14 1004.2R
SHEBOYGAN LAKESH 2300   73 53  240/ 16/ 20 1005.9S
PORT WASHINGTON  2200   78     260/ 10/ 14 1006.8
ATWATER BUOY     2300   69     220/ 10/ 14 1008.2R
MILWAUKEE LAKESH 2200   73     230/ 14/ 18   N/A
S MID LAKE BUOY  2250   65 63  220/ 14/ 14 1007.5F   2/ 4
KENOSHA   LAKESH 2300   72     210/  9/ 12 1007.8R
$$

TC  - TEMPERATURE IN CELSIUS
VSB - VISIBILITY IN STATUTE MILES
WCI - WIND CHILL INDEX
HX  - HEAT INDEX




USA.gov is the U.S. government's official web portal to all federal, state and local government web resources and services.